EW0587 Weather Reports


Display with metric or nautical units.
time (UTC)temp
F
wind
direction
speed
MPH
gust
MPH
rain 1hr
in
rain 24hr
in
rain mn
in
humidity
%
barometer
mb
20190419021540 45 12 0.0 4.0 0.00 0.01 0.00 76 1014.2
20190419020100 45 12 0.0 5.0 0.00 0.01 0.00 75 1014.0
20190419014529 46 7 0.0 5.0 0.00 0.01 0.00 75 1013.7
20190419013039 46 17 2.0 5.0 0.00 0.01 0.00 74 1013.3
20190419011518 46 360 2.0 5.0 0.00 0.01 0.00 74 1012.9
20190419010009 47 344 1.0 5.0 0.00 0.05 0.00 74 1012.6
20190419004520 48 345 3.0 9.0 0.00 0.05 0.00 73 1012.4
20190419003028 49 341 3.0 5.0 0.00 0.05 0.00 72 1012.4
20190419001503 49 344 3.0 6.0 0.00 0.05 0.00 71 1012.0
20190419000010 49 358 3.0 6.0 0.00 0.11 0.00 71 1012.0
20190418234703 51 12 2.0 11.0 0.00 0.11 0.00 69 1011.8
20190418233313 50 12 4.0 11.0 0.00 0.11 0.00 67 1011.5
20190418231708 50 297 2.0 10.0 0.00 0.11 0.00 68 1011.4
20190418230147 50 316 3.0 7.0 0.00 0.11 0.00 71 1011.2
20190418224622 50 12 4.0 8.0 0.00 0.19 0.00 70 1010.7
20190418223207 50 318 2.0 8.0 0.00 0.19 0.00 70 1010.6
20190418221704 51 314 5.0 11.0 0.00 0.19 0.00 66 1010.6
20190418220128 51 333 5.0 13.0 0.00 0.19 0.00 65 1010.4
20190418214608 51 347 4.0 9.0 0.00 0.24 0.00 67 1010.2
20190418213221 51 303 6.0 10.0 0.00 0.24 0.00 63 1010.1
20190418211743 51 322 1.0 9.0 0.00 0.24 0.00 69 1010.2
20190418210126 51 345 4.0 11.0 0.00 0.24 0.00 63 1010.3
20190418204709 51 315 5.0 13.0 0.00 0.24 0.00 65 1010.3
20190418203138 51 314 5.0 12.0 0.00 0.24 0.00 67 1010.3
20190418201640 50 301 5.0 11.0 0.00 0.24 0.00 67 1010.3
20190418200132 50 324 4.0 12.0 0.00 0.24 0.00 66 1010.2
20190418194641 51 12 7.0 14.0 0.00 0.32 0.00 65 1010.0
20190418193047 49 317 4.0 11.0 0.00 0.32 0.00 66 1009.9
20190418191632 49 310 4.0 14.0 0.00 0.32 0.00 67 1009.9
20190418190102 49 315 3.0 11.0 0.00 0.32 0.00 67 1009.8
20190418184601 49 312 5.0 11.0 0.00 0.56 0.00 70 1009.8
20190418183117 48 337 5.0 11.0 0.00 0.56 0.00 70 1009.9
20190418181551 49 12 4.0 10.0 0.00 0.56 0.00 73 1009.9
20190418180106 48 318 4.0 10.0 0.00 0.56 0.00 74 1009.9
20190418174602 47 12 6.0 13.0 0.00 0.77 0.00 74 1009.8
20190418173047 46 330 3.0 10.0 0.00 0.77 0.00 75 1009.7
20190418171554 47 12 5.0 11.0 0.00 0.77 0.00 77 1009.7
20190418170024 45 343 3.0 12.0 0.00 0.77 0.00 77 1009.7
20190418164539 45 335 3.0 8.0 0.00 1.10 0.00 78 1009.5
20190418163030 44 335 4.0 10.0 0.00 1.10 0.00 79 1009.5
20190418161523 44 12 2.0 10.0 0.00 1.10 0.00 80 1009.5
20190418160010 44 306 4.0 12.0 0.00 1.25 0.00 80 1009.1
20190418154513 44 311 3.0 9.0 0.00 1.25 0.00 81 1008.9
20190418153013 43 333 5.0 10.0 0.00 1.25 0.00 81 1008.8
20190418151651 43 12 3.0 10.0 0.00 1.25 0.00 82 1008.4
20190418150256 42 334 5.0 13.0 0.00 1.25 0.00 83 1008.4
20190418144723 43 331 3.0 10.0 0.00 1.27 0.00 83 1008.0
20190418143158 42 341 4.0 12.0 0.00 1.27 0.00 84 1007.7
20190418141641 42 12 4.0 12.0 0.00 1.27 0.00 84 1007.6
20190418140128 42 334 6.0 15.0 0.00 1.27 0.00 84 1007.3
20190418134651 41 12 5.0 11.0 0.00 1.31 0.00 88 1007.2
20190418133210 41 337 3.0 12.0 0.00 1.31 0.00 87 1006.9
20190418131651 41 336 5.0 14.0 0.00 1.31 0.00 87 1006.4
20190418130053 41 312 6.0 14.0 0.00 1.31 0.00 87 1006.0
20190418124639 40 302 6.0 13.0 0.00 1.31 0.00 88 1006.2
20190418123120 40 318 6.0 13.0 0.00 1.31 0.00 88 1006.6
20190418121620 40 319 8.0 15.0 0.00 1.31 0.00 88 1006.7
20190418120128 41 12 3.0 12.0 0.00 1.31 0.00 89 1006.7
20190418114621 40 302 7.0 13.0 0.00 1.31 0.00 89 1006.8
20190418113046 40 319 4.0 8.0 0.00 1.31 0.00 89 1006.4
20190418111619 40 300 3.0 10.0 0.00 1.31 0.00 89 1006.0
20190418110101 40 314 3.0 8.0 0.00 1.31 0.00 90 1005.8
20190418104631 40 327 3.0 10.0 0.00 1.31 0.00 90 1005.9
20190418103112 40 289 3.0 13.0 0.00 1.31 0.00 90 1005.6
20190418101536 40 310 3.0 11.0 0.00 1.31 0.00 90 1005.5
20190418100032 40 12 3.0 14.0 0.00 1.31 0.00 90 1005.2
20190418094515 40 12 4.0 13.0 0.00 1.31 0.00 91 1004.5
20190418093015 39 345 6.0 14.0 0.00 1.31 0.00 91 1004.2
20190418090008 39 303 7.0 16.0 0.00 1.31 0.00 91 1004.2
20190418084523 39 12 5.0 17.0 0.00 1.31 0.00 92 1004.1
20190418083019 39 308 5.0 13.0 0.00 1.31 0.00 92 1003.8
20190418081524 39 327 6.0 13.0 0.00 1.31 0.00 92 1003.8
20190418080001 39 302 5.0 14.0 0.00 1.31 0.00 93 1003.7
20190418074716 40 319 5.0 15.0 0.00 1.31 0.00 93 1003.9
20190418073139 40 285 7.0 11.0 0.00 1.31 0.00 94 1004.3
20190418071702 40 12 3.0 13.0 0.00 1.31 0.00 94 1004.1
20190418070240 39 301 5.0 13.0 0.00 1.31 0.00 95 1003.9
20190418064654 39 12 5.0 12.0 0.00 1.31 0.00 95 1004.0
20190418063145 39 324 6.0 13.0 0.00 1.31 0.00 95 1003.9
20190418061720 39 314 5.0 12.0 0.00 1.31 0.00 95 1003.4
20190418060153 39 316 3.0 15.0 0.00 1.31 0.00 95 1003.5
20190418054655 39 264 7.0 17.0 0.00 1.31 0.00 95 1003.1
20190418053157 40 333 6.0 12.0 0.00 1.31 0.00 95 1003.3
20190418051633 40 336 6.0 17.0 0.00 1.31 0.00 95 1003.6
20190418050114 40 320 5.0 12.0 0.01 1.31 0.00 95 1003.5
20190418044638 40 306 3.0 8.0 0.01 1.31 1.31 95 1003.6
20190418043110 40 314 3.0 9.0 0.01 1.31 1.31 95 1003.4
20190418041624 40 320 5.0 10.0 0.01 1.31 1.31 95 1003.3
20190418040120 40 323 3.0 11.0 0.00 1.30 1.30 95 1003.2
20190418034733 41 12 5.0 12.0 0.00 1.30 1.30 94 1002.8
20190418033121 41 334 4.0 10.0 0.00 1.30 1.30 94 1002.5
20190418031553 41 341 5.0 11.0 0.00 1.30 1.30 95 1002.1
20190418030037 41 295 3.0 12.0 0.00 1.30 1.30 95 1001.7
20190418024545 42 313 4.0 12.0 0.00 1.30 1.30 95 1001.3
20190418023027 42 313 4.0 9.0 0.00 1.30 1.30 95 1001.0